Simultaneous Nadir Overpasses (SNOs) Predictions

Prediction of SNOs between LANDSAT-8 and METOP-B Satellite Orbit:

Table of predicted SNOs for the next 14.0 days since TLE Epoch: 4/15/2023
Index Date (LANDSAT-8) Time (LANDSAT-8) Lat,Lon (LANDSAT-8) SZA (LANDSAT-8 ) Date (METOP-B) Time (METOP-B) Lat,Lon (METOP-B) SZA (METOP-B ) Distance(km) Time Diff (sec)
1 04/15/2023 04:14:14 79.12, 137.53 70.16 04/15/2023 04:14:54 79.72, 135.72 70.62 76.42 40
2 04/17/2023 22:58:00 -81.14, 55.05 107.44 04/17/2023 22:57:35 -81.14, 55.16 107.44 1.90 25
3 04/17/2023 23:47:25 81.14,-137.24 72.56 04/17/2023 23:48:14 81.15,-137.20 72.59 1.02 49
4 04/20/2023 18:32:13 -81.12, 121.20 108.44 04/20/2023 18:31:58 -81.12, 121.11 108.46 1.55 15
5 04/20/2023 19:21:38 81.15, -70.76 71.61 04/20/2023 19:22:37 81.15, -70.90 71.62 2.35 59
6 04/23/2023 14:06:25 -81.13,-172.19 109.35 04/23/2023 14:06:20 -81.13,-172.29 109.36 1.73 5
7 04/23/2023 14:55:50 81.16, -4.17 70.70 04/23/2023 14:56:59 81.15, -4.32 70.71 2.52 69
8 04/26/2023 08:51:10 81.12, 86.51 69.75 04/26/2023 08:50:02 81.12, 86.53 69.72 0.53 68



Historial Predications of SNOs between LANDSAT-8 and METOP-B
